Simultaneous Nadir Overpasses (SNOs) Predictions

Prediction of SNOs between GOES-15 and TERRA Satellite Orbit:

Table of predicted SNOs for the next 14.0 days since TLE Epoch: 11/16/2019
Index Date Time (GOES-15) GOES-15 Lat,Lon TERRA Lat,Lon Distance(km) Time Diff (sec)
1 11/17/2019 07:05:45 0.22,-128.51 0.19,-128.64 14.35 80
2 11/19/2019 06:50:54 0.21,-128.50 0.81,-125.68 320.73 80
3 11/19/2019 19:14:48 -0.20,-128.48 0.32,-130.83 267.09 80
4 11/21/2019 19:02:36 -0.20,-128.47 -0.30,-127.87 67.77 80
5 11/23/2019 18:50:24 -0.20,-128.45 -0.93,-124.91 402.22 80
6 11/24/2019 07:11:48 0.19,-128.46 -0.17,-130.10 186.53 80
7 11/26/2019 06:56:56 0.19,-128.43 0.46,-127.14 147.27 80
8 11/26/2019 19:20:51 -0.17,-128.41 0.67,-132.29 441.53 80
9 11/28/2019 06:44:44 0.19,-128.40 1.10,-124.18 480.67 80
10 11/28/2019 19:08:39 -0.17,-128.38 0.03,-129.33 108.17 80




NCC Satellite Simultaneous Nadir Overpasses (SNOs) Prediction Service
